RH
0 1 1 3 4 4 4 4 5 5 5 8 10 11 23 33 20 9 13 15 18 30 42 58 74 68 57 54 57 66 66 54 55 64 60 54 53 51 47 44 43 42 43 48 50 41 36 38 32 31 42 44 53 85 102 93 77 60 52 56 58 59 56 49 50 51 47 49 61 71 70 62 56 59 71 72 71 76 73 76 83 76 77 88 95 92 62
1 1 1 2 4 4 4 4 5 5 6 7 7 19 40 36 17 19 18 6 15 35 40 45 56 58 51 49 55 58 59 61 58 54 57 57 51 47 50 48 39 43 56 54 42 34 29 27 30 38 45 53 76 101 101 91 78 62 60 60 49 46 46 43 43 43 43 52 61 62 59 56 53 63 79 77 74 82 82 78 75 71 77 78 86 93 59
1 1 1 2 3 4 5 4 4 6 6 6 7 23 44 34 20 34 31 10 22 48 58 59 61 61 50 39 47 48 45 61 68 55 58 67 59 47 46 51 53 57 61 52 48 48 32 20 31 42 42 54 87 105 97 94 90 79 88 90 62 44 45 42 36 32 31 37 44 44 44 50 55 63 75 74 72 73 68 68 71 72 77 74 76 78 47
3 1 1 2 3 3 5 4 4 6 6 7 7 14 34 33 24 44 56 41 41 56 72 78 68 60 51 33 36 43 34 47 69 65 54 60 66 57 47 50 52 52 54 50 52 59 48 34 37 42 41 48 77 100 99 98 98 93 101 102 77 58 57 52 45 41 35 28 29 34 38 40 40 49 65 73 74 71 68 77 81 78 84 80 67 60 44
4 3 1 1 2 3 4 4 4 5 5 8 9 15 38 44 30 40 51 44 49 60 68 78 67 50 44 29 25 42 39 33 47 55 54 64 73 63 52 52 41 33 41 43 46 60 61 51 45 44 49 51 62 89 101 96 97 98 98 98 79 56 54 60 59 52 44 37 36 39 43 42 36 41 57 71 80 77 69 72 72 68 73 67 54 58 60
5 5 2 1 2 2 4 5 3 5 5 5 11 23 41 43 30 36 39 29 41 49 45 63 68 52 53 48 37 46 47 31 30 39 49 64 67 48 40 48 45 41 41 29 30 46 46 45 49 47 52 55 50 64 85 94 100 94 84 84 70 47 50 64 63 59 55 51 50 50 50 52 51 52 54 60 75 80 68 62 63 62 57 47 45 57 60
5 6 4 1 2 1 3 5 3 6 6 2 10 23 33 36 31 39 44 35 42 49 46 64 72 57 57 54 40 45 41 25 31 40 38 44 53 43 28 30 48 64 60 34 28 39 30 23 39 45 45 52 47 41 52 75 94 86 69 72 65 50 64 77 69 63 58 50 50 56 60 61 59 58 58 56 64 73 69 61 60 60 56 47 46 53 52
5 7 6 3 4 1 2 5 2 5 5 2 13 25 27 28 24 33 50 51 56 65 61 64 62 51 50 39 32 52 49 27 35 47 32 20 33 44 33 32 61 82 71 42 30 41 36 16 26 40 37 46 57 46 39 56 78 74 66 73 61 42 63 86 74 62 60 54 53 59 64 67 61 52 52 57 62 67 70 68 65 66 67 60 56 61 61
10 8 6 5 6 2 1 3 1 5 5 3 18 28 26 25 22 36 57 51 46 56 57 59 54 41 43 38 30 44 50 39 39 44 45 38 34 43 44 44 64 75 68 56 47 55 57 36 35 49 42 44 56 44 37 55 71 68 65 71 59 40 59 83 68 54 60 60 58 61 59 58 58 50 43 51 68 75 73 72 71 68 64 62 62 65 57
27 20 12 8 7 4 3 3 0 4 4 5 18 26 29 30 21 38 64 49 38 53 55 55 49 29 35 49 40 39 53 60 46 29 48 70 59 54 60 56 54 54 52 58 62 68 72 59 59 73 68 64 66 55 53 66 75 74 68 69 70 57 57 67 59 55 66 64 59 58 47 37 43 49 46 48 64 76 72 67 70 65 55 53 55 49 37
50 43 32 22 16 8 6 5 1 5 3 4 16 22 30 32 20 46 78 49 32 58 51 33 31 27 41 62 57 51 58 64 54 27 29 57 67 73 79 61 46 48 56 69 81 87 88 80 82 90 84 77 78 78 74 69 75 83 72 69 85 77 60 61 59 57 70 76 63 43 29 30 41 54 60 52 48 56 55 48 52 56 51 48 46 41 38
63 60 53 47 38 25 18 10 3 7 6 4 10 14 23 27 21 58 93 48 20 52 45 22 39 53 60 69 65 62 59 57 65 62 47 52 71 87 85 56 35 49 74 92 99 95 84 75 75 81 83 83 83 83 76 63 72 87 74 68 86 84 66 67 70 66 71 74 59 34 31 46 47 48 63 58 41 44 48 43 45 50 53 54 50 45 44
68 68 64 62 58 49 42 31 15 11 10 7 8 8 16 22 18 50 89 57 24 41 34 27 66 88 81 76 66 65 70 65 72 82 71 62 70 77 78 63 49 62 92 103 93 74 59 57 63 65 70 74 70 71 80 80 79 84 77 73 82 83 73 70 75 74 62 54 48 35 37 48 38 36 59 64 50 49 50 49 52 48 50 61 58 49 47
71 72 70 67 66 62 59 55 41 27 16 9 10 9 10 19 19 30 55 42 21 35 37 32 54 68 68 75 65 51 59 65 59 58 61 71 79 78 84 88 81 88 105 94 70 55 47 49 58 61 62 55 38 40 71 92 88 80 78 80 78 77 75 65 61 64 56 52 61 52 39 39 33 33 48 52 49 52 49 48 49 38 39 57 57 45 46
73 75 74 70 70 68 63 64 60 49 33 16 13 14 8 15 23 21 32 42 37 40 38 25 26 36 50 71 67 42 42 53 47 43 63 90 98 94 98 101 96 101 99 73 56 56 45 35 38 42 44 38 22 23 49 72 79 78 83 89 79 69 68 54 43 60 67 59 64 62 46 38 39 40 47 52 58 61 55 50 47 37 36 48 50 43 44
74 75 76 73 73 71 67 67 65 61 55 35 23 23 14 13 21 15 24 49 45 25 23 32 47 60 58 60 59 42 36 46 44 43 61 79 88 97 104 97 98 106 89 62 63 64 43 35 40 37 35 33 24 26 34 41 54 68 77 84 74 68 80 71 50 64 75 54 51 61 48 34 36 37 43 61 73 70 58 49 47 49 53 54 51 47 46
73 74 77 74 74 72 69 71 68 65 65 54 42 40 32 23 20 11 18 40 31 21 46 66 66 62 48 38 45 48 47 51 47 36 39 51 70 93 98 89 95 101 77 57 65 64 47 49 51 43 49 50 30 25 35 35 39 49 61 76 78 75 86 82 63 70 79 65 63 70 54 38 36 31 40 67 76 61 51 46 40 50 69 74 63 50 43
72 73 75 72 72 72 68 70 71 68 67 64 56 54 49 40 27 13 21 38 24 18 52 65 41 31 31 27 35 46 49 48 40 35 42 55 71 86 86 75 70 67 60 57 60 56 50 54 48 37 47 54 35 28 40 39 34 42 56 72 83 86 86 80 75 82 85 74 70 69 59 46 40 43 63 79 66 45 43 42 31 35 59 75 66 47 38
79 77 77 73 72 71 68 68 71 70 69 67 62 59 54 50 41 22 22 38 26 11 37 53 37 32 40 39 42 51 51 46 40 39 39 42 57 75 78 67 54 51 58 59 53 48 46 51 55 45 42 51 46 37 39 39 38 49 54 48 53 70 81 83 86 89 86 83 81 74 60 48 45 62 84 75 47 38 44 40 31 30 38 47 45 38 35
75 75 77 76 73 71 69 69 70 72 72 69 65 63 54 49 48 33 25 37 36 27 43 54 43 39 44 41 39 40 41 46 52 52 42 36 47 55 45 41 49 54 53 49 45 46 45 51 61 55 48 56 53 38 42 52 50 47 42 34 39 52 62 74 88 85 76 84 89 69 48 45 49 58 67 58 39 36 38 35 33 32 31 32 34 34 35
59 66 73 74 74 73 72 71 71 73 76 72 67 64 57 51 50 42 33 33 28 22 30 36 35 39 43 43 41 36 35 42 47 51 54 55 56 44 28 38 56 51 43 49 50 42 41 53 63 57 51 51 45 40 51 59 55 50 39 33 42 48 43 52 69 67 59 68 73 52 38 53 57 38 30 38 39 35 36 37 34 30 30 34 35 32 33
50 57 64 68 71 73 74 75 74 72 75 75 69 64 60 56 52 46 44 40 28 19 23 29 35 39 37 39 45 44 45 50 48 47 53 55 57 57 51 57 64 53 46 53 48 36 42 54 56 54 54 48 42 50 55 45 45 56 46 30 37 48 43 39 45 50 47 48 49 39 34 51 60 42 29 31 30 30 36 40 38 35 34 35 35 32 32
45 51 57 61 66 71 72 73 72 72 75 76 73 70 67 63 58 52 47 39 30 28 30 29 32 40 43 45 46 44 47 52 51 53 50 44 55 72 68 57 55 55 53 50 41 42 55 57 48 48 56 53 43 43 45 41 47 58 49 35 40 51 50 41 39 49 47 33 30 33 29 30 40 43 42 41 35 33 36 38 38 38 34 32 35 35 34
40 45 51 55 59 64 67 66 66 70 77 81 81 79 72 67 66 62 54 46 43 48 52 44 33 36 48 51 46 46 51 49 48 55 55 45 50 62 59 52 49 52 61 62 54 51 55 54 47 43 48 56 50 39 38 45 52 54 48 43 45 50 51 44 35 39 39 26 23 30 30 27 30 33 36 39 37 35 36 37 37 35 33 36 39 39 40
36 38 41 45 49 50 52 55 61 68 76 83 86 82 74 72 75 72 68 67 60 53 57 58 47 39 49 57 54 54 58 54 52 58 59 54 52 47 46 50 49 50 61 63 55 50 47 46 47 46 48 55 51 43 42 44 47 50 46 44 45 43 42 45 40 35 34 28 24 27 29 30 32 32 33 35 33 32 34 36 39 40 40 42 43 44 48
37 37 36 38 39 39 39 44 56 69 77 81 87 87 79 77 80 79 78 77 65 48 47 58 58 51 53 60 60 58 56 53 58 63 63 63 62 56 55 57 52 52 58 57 56 59 56 50 48 49 55 55 45 45 51 45 42 48 45 42 45 38 34 45 48 39 36 33 26 26 28 25 23 26 31 34 35 36 35 37 41 44 44 46 46 47 51
38 37 37 38 36 36 37 37 46 62 72 76 86 92 84 78 82 87 86 80 76 74 77 82 81 71 62 60 59 58 57 57 63 69 70 69 65 63 66 64 57 56 55 52 58 64 58 54 57 60 71 70 53 52 61 53 47 53 47 41 46 40 35 46 48 38 37 33 22 23 27 25 22 25 27 31 36 41 42 43 45 46 46 49 51 51 52
39 36 36 37 36 38 38 36 40 52 59 66 81 91 86 82 87 93 91 84 81 85 91 92 87 73 62 59 58 56 56 58 61 66 73 74 69 69 72 67 61 62 57 52 60 64 57 58 65 67 73 71 54 55 65 59 52 53 45 40 44 37 30 38 41 35 32 26 20 24 28 27 28 29 30 34 39 46 50 49 48 50 52 55 59 61 60
40 38 36 36 37 39 40 38 40 46 50 59 76 87 88 86 87 89 90 88 84 79 80 87 88 73 58 56 57 55 56 58 60 65 73 75 73 74 76 71 65 67 65 59 63 68 67 69 71 66 61 55 47 50 56 50 44 39 33 37 43 35 27 30 30 28 28 23 22 28 31 32 35 36 38 42 45 49 54 52 52 57 58 59 65 68 67
41 40 39 37 37 39 41 40 40 43 46 53 69 86 94 91 86 87 89 89 88 80 75 87 94 80 63 59 56 52 53 56 60 66 72 76 77 77 77 75 72 70 67 61 61 67 72 75 76 77 74 59 46 48 57 60 55 41 30 37 41 34 34 37 32 28 28 25 24 31 36 41 44 43 45 47 45 48 56 57 57 60 61 63 70 73 71
39 40 40 39 38 37 38 38 36 37 42 50 67 91 102 92 85 88 90 89 88 78 71 84 94 83 68 63 57 53 55 57 61 67 70 72 77 79 78 79 76 70 71 72 72 75 79 76 71 76 78 62 46 52 64 67 58 43 35 39 40 34 38 44 40 38 39 36 36 42 45 46 48 48 48 47 44 49 59 61 59 60 63 67 70 70 68
36 39 41 41 39 36 36 36 32 34 45 58 71 89 98 93 92 93 88 87 87 75 67 82 94 86 77 69 57 54 59 61 63 69 68 67 71 72 73 77 77 70 71 76 75 77 85 81 70 70 71 59 51 62 69 60 50 45 41 41 40 38 41 44 44 46 48 45 45 48 49 49 49 47 47 49 51 56 63 64 59 58 61 63 60 56 56
37 40 42 41 40 38 37 35 36 45 60 71 79 86 89 91 96 94 84 85 87 74 64 75 85 83 79 70 59 56 61 66 72 75 69 68 73 70 67 75 79 73 71 76 76 78 85 84 75 75 75 63 57 67 71 59 51 49 45 42 43 43 46 51 53 54 55 55 54 51 48 47 47 47 52 59 60 58 60 62 61 62 64 63 58 53 52
40 41 42 40 39 39 40 45 54 63 70 76 82 83 79 81 89 90 84 86 89 78 67 70 79 82 78 71 66 66 66 69 77 78 73 74 78 76 74 79 80 75 75 78 77 77 83 85 79 77 78 72 68 71 69 57 51 54 53 50 48 48 51 56 58 59 63 67 67 61 54 54 57 60 63 66 63 58 59 62 64 67 68 64 60 58 59
44 41 39 38 39 41 47 57 63 63 67 75 80 76 73 78 87 90 88 87 90 92 87 77 74 78 84 84 82 77 71 69 74 77 78 77 77 79 83 83 80 78 77 73 73 78 83 81 73 71 77 80 76 72 67 58 55 59 57 52 51 53 53 53 54 58 65 71 74 73 71 70 70 67 66 67 67 66 67 67 66 68 69 64 60 62 64
46 41 40 41 43 49 57 63 65 65 71 79 78 72 74 82 88 93 96 94 94 99 98 87 79 79 83 87 84 72 67 75 81 82 82 79 76 83 90 86 82 84 80 74 82 94 89 72 65 72 82 81 72 69 70 65 60 59 56 53 56 59 57 57 58 61 68 74 77 75 73 71 69 67 66 67 67 68 70 68 63 63 66 64 61 63 65
44 44 43 40 46 62 73 75 74 73 72 73 73 74 81 87 89 93 97 96 96 98 93 92 97 94 83 84 85 73 66 77 82 77 80 84 81 84 92 90 86 87 83 81 91 98 87 71 67 74 79 72 65 68 71 64 57 57 55 55 61 67 69 70 69 63 63 68 68 64 62 64 64 63 63 62 61 63 65 63 60 63 68 68 66 66 65
47 46 41 39 57 84 93 83 73 69 69 72 76 81 86 89 92 98 99 95 96 98 92 91 100 97 86 89 93 77 66 77 84 77 79 85 80 76 84 92 88 83 82 84 86 84 80 78 81 84 81 71 62 63 64 59 56 60 62 64 70 74 75 76 71 59 53 55 55 53 54 55 55 54 55 56 59 62 64 65 66 68 71 70 69 68 68
44 40 42 53 74 90 87 76 69 69 74 77 75 77 84 86 82 86 97 99 96 94 93 95 100 98 92 95 94 75 60 70 83 84 81 80 74 70 76 82 81 78 80 81 78 72 70 79 92 98 91 74 61 57 59 59 61 66 70 72 69 66 69 75 70 57 50 49 51 53 56 57 57 58 58 59 60 62 64 67 69 68 69 70 70 71 72
49 58 73 84 84 75 68 70 74 77 81 85 82 81 85 85 80 82 94 102 101 95 91 90 92 93 89 87 88 80 64 59 69 81 81 75 72 72 71 69 69 72 75 76 75 71 69 77 92 96 82 65 59 60 61 64 69 73 70 64 55 51 55 58 53 47 50 54 53 54 58 61 64 66 66 65 65 64 64 65 66 66 68 70 70 70 71
76 85 91 93 87 76 71 75 80 82 86 91 93 89 81 75 80 90 92 90 92 97 92 82 80 84 84 80 82 81 69 58 64 75 78 75 74 71 68 66 65 66 72 79 81 78 76 79 85 86 76 65 64 69 68 67 72 74 66 54 45 44 46 46 42 42 50 58 59 56 56 59 63 67 68 68 69 70 70 71 70 70 69 68 67 66 64
85 87 88 91 92 86 77 73 76 83 90 91 89 90 90 87 86 86 80 71 74 84 83 72 66 70 72 71 74 74 65 60 65 70 71 76 77 70 67 72 74 72 76 81 76 74 80 82 76 75 75 69 65 70 69 61 60 66 64 52 43 43 47 52 54 49 47 54 61 60 57 59 63 63 64 65 67 69 70 71 71 70 66 64 64 63 61
77 83 89 90 87 78 69 65 66 78 93 93 76 68 81 92 88 85 86 84 80 79 76 68 66 70 68 62 64 67 60 56 63 69 69 74 77 71 68 77 82 79 78 75 67 68 78 79 67 63 65 63 62 69 72 65 64 71 69 54 45 45 48 53 58 56 51 54 59 59 59 63 64 61 59 61 65 67 66 65 65 65 63 62 61 61 61
67 77 83 86 87 77 60 52 57 66 77 83 74 64 67 76 78 84 93 91 79 75 77 74 72 76 76 69 70 74 68 61 65 72 72 73 78 79 78 83 86 80 70 67 69 72 73 70 65 63 65 65 65 67 68 68 71 73 68 58 52 52 53 56 61 63 61 58 56 56 58 61 61 59 58 58 60 63 65 63 61 60 61 62 64 63 62
72 88 91 88 87 73 49 44 61 71 70 78 91 92 84 81 83 89 94 87 74 72 79 80 75 77 81 77 72 74 76 73 72 73 72 71 73 76 78 83 87 80 70 69 76 76 70 67 68 66 64 66 66 64 65 69 70 69 69 68 64 60 62 66 67 65 62 57 53 54 58 59 59 60 60 58 58 61 64 63 62 62 64 66 68 67 65
83 101 99 84 74 68 58 59 74 80 78 88 102 100 93 93 96 94 90 85 78 75 79 81 79 81 85 81 74 76 83 82 74 72 77 79 74 71 73 76 78 81 87 91 87 74 66 66 67 63 62 66 68 68 70 73 73 71 72 73 68 64 64 64 60 56 53 52 52 55 59 59 59 61 61 60 60 60 61 62 63 64 66 69 71 69 68
83 96 98 90 86 87 86 84 84 84 87 96 100 96 94 96 94 86 83 83 81 79 83 85 82 80 81 78 74 77 86 87 79 73 75 75 71 70 74 75 71 74 85 89 79 69 72 78 75 68 68 72 72 72 74 73 72 73 72 69 65 63 59 54 52 51 51 52 56 59 60 59 60 61 63 64 64 63 63 63 63 63 66 70 71 69 70
90 93 95 97 97 97 95 94 93 94 95 98 98 97 96 94 87 82 83 83 80 79 81 81 77 78 82 83 81 81 86 90 88 80 75 75 78 80 85 88 84 76 74 76 73 70 74 77 72 68 72 76 76 77 78 75 71 70 67 63 61 58 53 51 54 54 53 56 61 63 62 62 63 63 66 68 68 65 63 62 63 65 68 70 71 71 72
98 96 96 98 99 98 99 100 100 98 95 94 93 92 91 91 88 83 82 84 86 83 78 74 73 78 85 91 92 89 87 87 86 85 86 88 89 87 90 96 93 80 73 78 80 74 69 71 74 75 78 79 77 75 72 69 66 65 63 60 58 55 53 55 57 57 56 60 64 63 63 65 66 66 68 70 69 67 64 64 67 69 70 69 71 73 72
97 95 96 94 90 88 88 89 92 95 96 95 94 91 87 86 85 80 77 83 87 82 78 79 81 79 81 86 87 85 83 82 84 88 90 88 87 88 90 87 80 73 72 77 78 74 71 75 79 78 74 72 70 68 65 63 64 63 61 58 57 56 57 58 59 59 60 61 62 62 65 67 67 68 69 69 67 68 69 69 70 70 69 67 69 70 70
95 94 94 91 86 84 82 79 83 90 93 93 95 95 91 89 87 79 72 74 81 83 84 87 87 85 87 91 88 83 83 85 86 87 86 83 86 93 91 75 63 64 72 74 73 73 73 72 71 70 69 68 66 65 63 62 62 61 58 57 58 60 60 61 61 61 62 62 62 64 67 67 66 66 67 68 70 74 75 73 69 67 66 67 67 67 68
96 96 96 94 93 93 92 90 91 93 93 92 94 94 89 87 85 77 67 70 83 91 90 88 89 92 94 90 81 77 80 82 80 80 77 72 72 78 79 70 64 67 71 69 66 65 63 61 62 65 66 64 63 63 61 60 59 57 56 57 59 61 62 63 63 63 64 65 65 66 66 66 65 66 68 71 74 77 77 74 69 66 66 67 67 67 67
Wind_Speed
30 31 32 32 32 32 32 30 26 23 16 7 6 6 4 4 2 7 20 9 5 10 7 2 5 4 0 1 1 1 2 2 1 1 1 1 0 2 1 0 1 1 0 1 2 2 2 2 1 2 3 3 2 1 2 1 1 2 1 1 1 1 2 1 5 5 5 4 3 3 2 3 2 1 2 3 2 3 5 5 3 2 2 1 2 2 9
29 30 31 32 32 31 31 30 25 23 19 10 6 5 3 2 3 6 20 11 4 6 5 2 3 2 1 2 2 2 1 2 1 0 1 0 1 1 0 1 1 1 1 2 1 1 1 2 1 1 3 2 1 2 2 2 1 1 0 0 0 1 0 1 4 6 7 7 5 5 4 1 2 3 1 2 3 6 3 2 2 2 5 6 4 4 9
29 30 31 31 32 31 30 30 26 21 19 13 7 5 3 4 1 4 17 21 12 5 4 6 5 2 1 3 2 3 1 1 0 2 1 1 2 1 0 1 1 1 2 2 1 0 0 1 1 1 2 3 2 2 2 2 0 0 2 1 1 2 2 2 1 2 4 5 5 4 3 2 2 2 2 3 4 7 3 1 3 3 4 6 6 6 10
29 30 31 30 32 32 30 30 27 20 15 14 13 9 3 3 3 3 9 14 12 4 1 4 6 4 3 3 1 1 1 1 1 2 1 1 2 1 1 1 1 2 2 1 1 2 1 0 1 1 3 3 2 1 1 2 1 0 2 2 2 2 1 3 5 6 6 7 8 4 0 2 5 5 4 5 5 6 5 4 3 5 3 3 8 11 12
29 30 31 30 31 32 30 30 29 22 14 11 14 12 5 3 3 1 3 4 5 5 4 5 4 2 3 2 0 1 0 2 1 1 1 1 1 1 1 1 1 1 1 0 2 2 1 1 0 2 3 3 2 0 2 2 2 2 2 1 3 4 3 4 6 9 10 9 10 6 2 4 10 8 6 7 6 6 7 6 7 5 4 5 10 9 9
30 30 30 31 31 32 31 29 29 26 18 9 9 7 5 4 2 2 1 1 2 3 4 4 5 4 3 3 1 0 1 1 1 1 1 1 0 1 0 1 3 4 3 1 0 2 2 1 2 1 2 2 2 1 1 1 2 2 1 1 3 4 4 4 4 7 11 10 11 9 5 6 8 9 9 8 7 10 12 14 9 8 6 11 10 5 8
31 30 30 31 30 31 32 30 28 27 22 19 17 8 3 4 3 1 2 2 3 1 2 3 6 5 3 3 1 1 1 1 2 1 1 2 1 1 1 4 3 4 4 3 1 2 1 2 4 2 2 2 1 1 1 1 0 0 1 1 1 4 3 3 2 5 11 12 10 7 6 6 7 10 11 10 10 13 15 14 9 8 12 17 15 14 16
32 32 31 31 31 31 31 31 30 26 24 26 24 11 3 3 2 0 3 4 2 2 3 3 4 3 3 2 1 2 4 3 3 1 2 1 2 1 2 4 2 2 4 4 3 6 6 4 5 4 2 2 2 3 2 2 1 1 2 0 1 2 3 1 2 3 9 10 7 3 5 6 9 13 12 9 9 10 11 10 6 6 12 17 15 15 17
33 33 33 32 32 32 31 31 31 29 26 24 17 8 5 4 3 3 5 3 4 3 3 3 3 3 3 1 1 2 5 6 3 2 3 3 3 4 5 3 1 2 2 4 7 8 8 7 7 7 4 3 3 3 2 4 4 1 1 1 1 2 2 1 4 3 7 6 5 5 5 5 9 16 14 8 7 6 7 6 6 8 9 10 8 8 12
34 34 34 33 33 33 32 32 31 30 30 23 12 5 6 4 1 2 5 3 3 2 2 3 3 2 3 1 0 2 3 2 2 1 2 2 3 5 7 6 3 1 2 6 8 6 5 5 4 4 3 1 2 1 1 5 6 5 4 1 1 4 2 1 2 2 7 5 5 6 7 7 7 10 8 7 7 5 4 4 8 11 8 4 6 8 10
35 35 35 35 35 34 33 33 31 31 33 27 15 8 7 5 2 2 5 4 3 2 2 3 3 0 2 1 2 2 4 4 2 2 2 2 2 1 3 4 2 3 4 5 5 2 2 2 2 3 3 2 2 2 3 4 3 3 6 3 1 4 4 1 1 1 6 7 6 6 5 4 6 6 6 7 7 7 7 8 11 11 9 7 9 9 10
34 35 36 36 36 36 35 34 32 31 32 29 21 16 13 9 4 3 5 5 2 3 3 2 1 0 1 1 1 2 2 3 3 0 1 3 2 4 2 2 0 3 3 4 4 2 1 1 2 2 3 4 3 3 2 2 1 2 2 4 3 3 3 1 1 1 4 6 6 6 4 7 10 7 3 5 6 7 8 10 13 12 12 13 14 14 15
31 33 34 35 36 36 37 36 33 31 29 27 25 24 20 14 7 4 5 5 0 2 2 1 1 0 1 1 2 4 5 5 3 0 2 3 2 1 0 1 3 3 3 4 2 1 1 3 2 1 2 3 4 4 3 2 3 5 4 3 4 5 4 1 1 2 3 4 4 2 6 10 13 9 2 2 1 3 3 7 13 14 11 11 13 16 16
28 30 31 33 34 35 36 36 35 32 29 27 27 26 23 17 9 3 4 5 0 3 2 2 4 2 2 3 2 3 4 3 4 2 1 1 2 4 2 2 3 2 2 2 2 3 2 3 4 4 3 4 4 2 1 2 2 3 4 3 3 6 5 1 1 2 1 1 3 5 7 10 11 5 1 2 2 4 3 3 10 13 7 9 10 13 14
25 27 28 30 31 32 33 34 35 33 30 27 26 26 25 21 12 4 3 5 3 1 1 1 2 2 3 3 2 1 4 5 4 3 2 1 1 3 3 1 2 2 2 0 2 3 2 1 3 4 4 3 3 3 1 1 1 1 2 2 3 4 3 3 2 1 1 1 3 5 5 6 7 6 4 3 2 5 5 1 7 12 8 8 10 11 12
23 25 26 27 28 29 30 31 32 32 30 27 25 26 28 25 17 7 2 5 5 2 2 4 5 5 4 2 2 1 2 2 2 4 5 4 2 3 2 1 1 2 1 2 3 3 3 1 1 1 2 2 2 3 3 1 2 2 2 4 5 4 3 3 2 2 1 2 1 3 3 6 9 9 6 4 2 5 6 3 6 9 8 6 8 9 10
21 22 24 25 26 27 28 28 29 30 30 27 24 25 28 27 21 12 5 4 4 2 4 6 6 5 3 0 1 1 2 1 0 2 3 3 3 3 3 2 1 2 0 3 3 3 3 1 1 1 4 3 2 2 3 1 2 3 2 4 5 4 3 2 2 4 2 3 2 4 5 8 12 11 5 3 3 6 7 5 9 7 6 4 6 7 10
19 20 21 23 24 25 26 26 27 28 28 27 24 23 25 27 24 16 7 3 3 4 4 6 5 2 2 3 1 2 3 1 1 1 2 3 2 1 2 1 0 2 1 2 2 2 2 1 2 2 4 3 1 1 2 1 2 4 2 2 2 2 0 1 3 4 4 4 4 5 5 9 12 9 3 4 3 4 2 6 8 4 4 4 5 7 11
18 19 20 21 22 23 24 25 25 25 26 26 23 21 22 25 24 18 9 3 3 3 4 5 2 1 4 4 2 1 2 2 2 1 2 4 2 2 2 0 1 0 0 2 1 2 1 3 2 3 2 4 1 2 2 2 3 3 3 2 1 1 1 1 2 2 3 4 3 3 7 8 6 3 2 3 2 1 5 7 4 4 7 8 7 10 11
19 19 20 21 21 22 22 23 24 24 24 25 24 20 21 25 24 19 10 3 2 3 4 3 2 2 3 3 3 2 1 2 1 2 1 2 2 1 2 3 1 0 1 1 0 1 2 3 3 2 2 4 2 1 2 3 3 4 5 4 4 4 3 2 3 4 2 1 1 1 6 7 5 8 2 1 4 5 5 4 6 9 10 11 11 11 9
20 20 20 21 21 22 22 22 23 23 23 24 24 20 20 23 23 19 12 3 3 1 3 0 1 0 0 2 3 2 1 2 1 2 2 3 2 1 0 3 2 1 1 2 1 2 2 2 2 1 2 2 1 1 2 3 6 5 4 3 2 4 5 3 4 4 4 2 4 5 5 5 7 5 3 5 6 5 5 6 10 12 11 9 10 12 11
21 20 20 21 20 21 22 22 22 23 22 23 23 21 21 23 23 20 14 6 1 2 5 4 2 3 3 4 5 5 5 4 3 2 2 2 2 2 4 3 3 3 2 2 1 2 2 1 1 2 2 2 2 3 3 1 5 7 1 1 4 7 7 5 5 5 4 5 9 9 5 5 7 6 6 7 9 9 7 6 9 10 9 8 8 13 15
19 20 20 20 20 20 21 21 22 23 22 23 22 21 22 23 23 22 16 7 2 3 6 4 3 5 5 7 8 7 5 4 5 4 3 1 3 2 3 4 3 2 2 2 2 2 2 3 2 1 2 3 2 2 3 3 4 4 2 3 7 7 5 3 3 4 3 8 12 10 10 12 9 4 5 8 11 11 9 8 8 9 10 9 8 11 15
18 19 19 20 20 20 20 21 21 22 22 22 21 18 19 22 25 25 17 7 4 4 4 2 5 4 3 8 10 9 8 6 6 6 5 5 4 3 3 4 3 1 1 4 4 3 2 3 1 1 3 3 3 2 4 5 5 3 2 4 6 4 3 3 4 3 2 8 12 7 7 12 11 7 7 8 9 10 9 7 8 10 11 11 11 12 14
17 18 19 20 20 21 21 21 21 20 21 21 19 16 17 22 26 26 18 7 2 3 2 4 5 4 4 9 11 10 11 12 9 7 7 9 9 7 6 3 3 2 4 4 4 4 1 3 2 2 5 4 3 3 3 4 4 3 3 6 5 1 2 3 5 4 3 10 16 12 9 12 10 6 7 7 8 11 10 7 8 10 12 12 12 12 11
16 17 19 20 21 21 21 21 20 20 20 20 19 16 16 20 25 26 22 11 2 4 3 3 3 4 8 11 11 12 13 13 11 9 8 9 11 12 11 7 5 4 3 1 3 4 3 3 2 4 4 3 2 2 3 4 3 2 6 8 2 2 0 1 2 3 5 11 14 11 12 14 9 3 4 5 6 10 13 12 10 11 12 13 14 12 10
14 15 16 18 19 20 20 20 19 19 20 20 19 14 11 15 22 26 24 16 6 2 3 2 4 9 13 10 9 12 13 13 12 10 9 9 9 10 11 9 6 4 1 1 2 1 2 0 2 4 4 3 2 2 3 4 2 3 9 7 3 2 3 2 1 4 7 10 12 9 10 13 10 8 10 10 9 10 12 14 14 14 14 14 15 16 14
13 13 14 14 16 17 18 18 18 18 18 19 18 12 7 12 21 24 22 18 10 2 2 3 6 11 12 8 9 13 13 12 12 9 8 8 7 8 9 8 5 2 1 1 2 1 2 2 3 2 2 2 2 2 3 2 1 5 9 3 4 4 5 3 2 6 8 12 15 12 8 9 9 11 14 14 11 9 10 12 14 14 13 12 12 14 16
12 12 12 12 13 14 15 17 17 17 18 18 15 8 5 8 17 23 20 18 12 2 3 2 5 6 5 6 10 10 11 12 11 8 7 7 6 7 7 7 5 2 2 1 1 2 3 4 2 2 2 2 2 3 3 1 3 8 6 2 5 6 5 4 8 10 9 13 16 11 6 7 10 12 14 13 10 7 9 12 13 11 13 13 10 10 12
10 11 11 11 12 12 13 15 15 16 18 16 11 6 3 4 12 19 19 17 13 5 2 2 2 3 3 6 7 8 11 14 11 7 6 7 7 6 5 5 4 2 1 1 1 2 2 3 2 3 4 2 2 3 2 1 4 6 1 4 1 3 5 8 10 9 9 13 13 9 6 6 9 10 10 10 11 9 7 10 13 13 15 15 12 9 11
9 10 10 10 10 11 11 13 14 15 17 14 8 3 1 2 9 16 17 16 13 5 3 2 2 3 4 4 4 6 14 15 10 7 7 6 5 5 4 3 3 3 2 1 1 2 1 2 2 3 3 1 2 3 2 1 5 7 2 5 6 7 7 8 7 6 9 11 10 9 7 6 7 7 6 8 14 15 10 10 16 18 18 17 15 13 14
7 8 9 9 10 10 10 11 12 13 13 12 10 6 2 3 9 15 16 15 11 4 3 1 2 2 3 4 4 6 12 11 7 7 6 3 3 3 2 2 2 4 4 2 1 2 2 3 3 3 2 2 2 2 2 4 9 11 9 9 10 9 9 8 6 6 8 7 5 6 8 7 6 7 7 9 15 17 12 13 18 22 20 19 17 15 15
7 7 8 9 9 9 10 10 10 10 9 10 10 8 8 9 12 16 16 12 7 2 3 2 1 1 3 4 3 5 8 6 4 5 4 2 2 4 3 1 1 3 4 3 1 2 1 2 2 3 2 2 1 1 3 8 10 10 11 12 11 10 8 7 7 7 7 5 3 3 5 7 8 9 12 14 16 17 15 15 17 18 15 14 14 14 15
7 7 8 8 8 8 8 7 7 7 7 7 6 10 16 18 18 16 12 6 2 2 2 2 1 1 3 3 3 3 4 3 2 2 3 2 2 3 2 2 3 2 2 2 1 2 2 1 2 2 2 2 1 0 5 9 8 7 9 12 12 10 7 6 6 6 6 5 4 6 8 9 9 10 11 11 12 15 16 15 14 12 10 10 11 12 13
9 9 8 8 8 8 5 4 6 7 6 5 7 14 20 21 17 11 7 4 3 2 2 2 2 1 3 4 4 3 2 2 1 2 1 2 2 1 1 1 3 2 2 1 0 2 2 2 2 2 2 1 1 3 6 7 7 8 10 11 11 8 6 5 6 7 6 6 5 6 7 7 7 8 9 8 10 11 12 11 11 10 9 11 11 10 10
10 9 8 7 6 5 2 3 7 9 7 7 13 18 18 14 10 7 6 5 4 2 1 2 2 0 1 2 4 3 3 3 3 2 1 1 2 1 3 2 2 2 1 2 1 3 3 1 1 2 2 2 3 5 6 6 8 11 11 10 9 6 5 6 7 7 7 7 6 7 7 6 6 7 8 9 9 9 9 11 12 11 12 14 14 11 10
11 10 8 6 3 2 2 3 6 10 11 13 15 14 10 6 5 6 6 6 5 4 3 2 1 2 1 2 3 3 3 3 2 3 2 1 2 1 2 1 2 2 1 2 3 4 2 0 1 3 5 4 4 6 6 7 10 10 9 8 7 5 5 6 5 4 6 8 8 8 8 7 8 8 8 10 12 11 11 12 13 12 13 14 14 13 13
12 9 6 4 2 1 1 3 8 14 16 14 9 5 4 4 4 3 3 4 4 4 4 2 2 2 0 2 3 2 2 2 2 2 2 1 1 1 1 0 2 1 1 3 4 2 1 1 1 4 6 4 4 7 9 9 9 8 6 6 6 5 5 5 2 0 5 8 9 9 9 11 12 13 12 13 13 12 11 11 11 12 12 12 14 16 17
10 7 5 5 3 1 3 9 14 15 12 7 3 2 2 3 3 2 2 2 2 2 2 1 2 2 2 3 5 3 0 1 3 3 2 2 2 1 1 1 2 1 1 4 3 1 0 3 2 2 4 4 4 6 7 5 6 6 5 5 6 6 5 4 4 4 4 5 8 9 8 9 11 12 11 12 12 12 12 11 13 15 15 16 18 19 17
11 9 6 3 3 6 10 13 12 8 3 2 3 2 1 2 2 0 1 2 2 1 1 1 2 2 3 3 4 3 1 0 2 2 2 2 2 0 0 2 2 0 2 5 3 1 0 2 2 2 4 4 5 5 5 5 5 6 5 6 8 8 6 6 8 10 9 9 11 12 13 13 12 10 11 12 12 13 13 13 15 18 20 21 22 20 18
10 8 4 4 9 14 14 10 5 2 2 2 3 2 2 2 1 0 1 2 1 3 2 1 1 3 1 2 2 3 2 1 0 1 1 2 2 0 0 2 1 0 3 5 2 2 1 1 3 4 5 5 6 6 5 5 5 5 5 6 8 10 10 9 12 14 12 10 11 13 16 18 16 15 15 15 13 13 14 14 16 21 23 23 23 24 23
9 7 8 10 12 12 9 4 2 2 3 2 2 1 1 1 1 1 1 0 1 2 2 1 1 4 4 2 3 3 3 1 1 2 0 3 2 1 1 2 1 1 4 5 0 3 1 2 5 6 6 5 6 6 4 4 4 4 7 9 10 12 12 11 12 15 17 14 13 15 19 20 20 20 21 21 20 19 19 19 20 23 25 25 25 25 26
9 7 7 7 7 5 3 2 1 2 2 2 1 1 2 2 1 0 1 2 1 1 1 2 2 3 3 2 3 4 4 2 0 1 1 2 2 0 1 1 1 2 4 2 1 0 3 5 6 7 5 4 6 5 4 5 5 5 8 11 12 13 15 14 13 16 19 18 17 19 21 21 22 24 26 25 23 23 25 26 26 26 28 30 31 32 32
8 4 3 3 2 1 1 1 1 2 1 1 1 2 0 2 1 1 1 2 2 1 2 1 1 3 3 2 2 2 3 1 1 1 1 2 1 1 1 3 3 2 2 1 1 2 4 5 6 6 4 3 5 5 4 5 5 5 7 11 13 14 16 16 14 15 17 18 20 21 22 22 24 27 29 29 26 23 25 30 33 32 32 31 31 34 36
5 3 3 3 2 1 0 0 1 1 1 2 2 3 3 2 3 3 3 2 1 2 3 2 1 2 4 3 2 1 1 0 0 1 1 1 1 2 3 3 2 1 2 3 3 4 5 5 4 4 4 4 5 6 5 5 6 7 7 9 12 13 13 13 13 13 16 20 24 25 25 25 26 26 29 32 33 30 27 29 32 34 33 31 29 31 36
2 1 2 2 2 1 0 1 0 1 1 2 2 3 4 4 4 4 3 1 0 2 4 3 3 3 4 3 2 2 1 0 1 2 1 1 3 4 2 1 1 1 2 3 5 6 7 6 4 3 5 6 5 6 6 6 7 7 6 7 10 13 14 17 18 19 22 26 28 27 26 26 26 26 28 32 36 36 33 31 31 31 31 29 29 33 36
1 1 3 1 1 1 1 1 2 2 3 3 3 4 4 3 2 3 3 2 2 2 3 2 2 3 3 2 2 2 0 1 2 3 1 1 3 3 1 0 3 3 3 5 7 7 6 5 4 4 6 6 6 7 8 7 7 8 9 9 11 14 18 21 23 25 28 30 29 27 27 27 28 28 28 30 33 36 36 34 33 31 29 29 32 36 37
1 1 1 1 1 1 1 2 2 1 2 3 3 3 2 1 1 3 4 3 2 1 2 2 2 3 3 1 2 3 2 0 2 3 1 1 1 2 1 2 5 4 3 5 7 5 4 4 5 6 7 7 7 7 7 8 9 10 12 13 14 18 22 23 24 27 31 30 26 25 27 28 29 29 28 27 30 35 37 36 35 33 32 33 34 36 36
1 0 1 1 1 2 3 1 1 2 4 4 3 3 3 2 3 6 5 3 2 1 1 1 1 3 3 1 1 2 2 1 2 2 1 0 2 2 2 4 6 6 4 5 5 4 5 6 6 7 8 8 8 8 8 9 11 13 16 18 21 24 26 26 27 30 32 30 26 27 29 30 29 28 27 26 27 31 36 38 37 36 36 37 36 35 35
1 0 1 1 1 2 2 0 0 3 5 5 3 3 3 3 4 5 4 2 1 2 3 2 1 2 2 2 2 3 3 2 1 1 2 4 3 3 4 7 9 7 5 5 4 5 6 6 6 8 10 11 11 11 12 13 14 18 23 27 29 29 29 30 31 32 32 31 31 31 31 30 28 28 27 27 29 32 36 39 39 38 38 38 36 33 32
1 1 2 2 3 3 2 1 2 4 5 4 4 4 3 2 3 4 3 1 2 4 3 1 1 1 2 2 3 3 2 1 1 2 5 5 3 3 6 11 11 7 5 6 6 6 6 7 7 9 12 13 12 13 16 20 24 28 32 34 33 31 31 32 32 32 32 33 34 33 32 31 32 33 33 33 34 31 29 32 36 38 37 36 35 33 32
2 2 2 2 3 3 3 3 3 4 5 5 4 4 3 4 6 8 7 4 3 3 2 2 2 1 3 3 3 2 2 2 3 6 7 5 3 4 7 10 8 6 6 8 8 8 9 10 11 13 14 15 15 19 25 29 32 35 37 38 35 32 31 32 32 33 33 33 34 35 35 35 37 37 35 32 28 21 17 21 31 37 36 35 35 36 36
Wind_Direction
27 27 27 26 25 23 20 20 25 30 33 42 51 59 61 61 136 337 353 355 140 69 55 346 23 58 218 341 100 11 57 110 38 354 16 23 354 6 9 211 50 139 182 95 155 194 202 191 188 217 235 240 228 294 18 48 101 105 148 265 253 108 86 12 286 284 311 331 17 57 74 102 112 231 156 142 159 136 153 182 187 214 229 162 86 268 267
27 27 27 27 27 25 23 20 19 24 31 35 53 80 101 103 185 348 9 20 142 85 80 127 41 25 278 49 34 342 65 115 57 308 296 329 147 80 357 213 46 68 88 82 145 213 229 212 229 199 214 239 335 24 360 350 92 120 196 157 186 281 174 63 340 332 340 347 359 355 347 76 209 247 199 162 126 100 116 152 109 269 226 165 148 250 261
27 27 28 28 28 27 25 22 17 21 30 34 57 110 124 67 153 309 14 36 65 95 144 142 125 153 108 70 33 358 49 100 117 163 175 193 173 143 338 216 124 85 67 61 79 26 356 257 319 23 228 256 346 30 344 333 82 254 324 339 280 247 208 131 83 323 305 306 305 298 286 257 229 223 218 210 150 134 160 145 112 242 233 162 169 236 267
28 29 28 28 29 28 27 25 20 19 28 44 65 83 105 72 55 312 351 27 53 76 119 99 109 145 132 92 29 55 99 264 240 153 156 189 169 155 260 191 110 76 75 50 309 284 302 15 355 287 242 267 323 42 30 33 65 327 321 337 63 87 252 211 182 201 223 242 255 252 79 301 274 254 225 211 184 153 131 113 172 202 183 192 223 236 269
29 29 28 29 30 29 29 28 24 21 24 49 66 59 55 96 71 7 317 355 28 36 20 42 74 133 130 107 222 177 202 302 319 148 189 177 158 162 146 145 164 181 147 113 262 266 329 24 282 232 237 267 303 96 122 85 26 347 304 289 91 89 285 247 200 226 241 244 261 283 3 277 264 260 236 208 193 157 154 197 213 158 116 261 247 218 239
30 29 29 29 30 31 32 30 29 30 29 48 77 54 29 77 134 198 167 43 44 32 12 51 67 56 82 99 65 358 346 317 227 221 307 46 167 182 41 286 223 197 174 138 218 297 337 314 245 236 254 279 341 7 148 109 6 357 359 323 111 126 259 244 191 255 268 258 263 271 267 260 257 252 243 226 198 176 195 224 213 153 191 251 256 226 238
31 29 28 29 29 31 32 32 33 36 40 55 72 71 27 70 106 277 18 95 159 139 4 89 81 51 62 85 50 129 146 266 245 207 52 1 315 125 262 280 255 202 182 139 164 242 260 286 265 222 200 243 312 318 243 171 304 171 109 326 148 151 245 245 179 284 284 273 268 253 234 258 272 255 238 225 213 201 213 234 219 190 233 254 267 276 273
33 31 29 28 29 30 32 34 35 37 43 55 64 61 35 87 127 200 47 58 83 37 7 68 83 39 39 71 72 153 172 231 268 224 148 259 308 120 223 266 261 188 173 150 208 223 185 204 241 190 167 263 223 214 219 155 112 24 118 245 248 189 255 238 106 313 284 280 293 265 204 233 271 275 260 228 217 218 226 242 230 212 246 258 267 278 278
34 33 31 29 29 29 30 33 35 36 41 54 64 50 38 89 151 142 100 53 1 14 12 43 77 32 8 75 149 195 203 206 217 238 199 192 204 189 192 210 146 103 163 206 245 238 190 199 222 183 174 254 213 215 228 142 134 157 176 174 150 183 266 359 53 345 277 276 330 327 293 281 278 281 275 237 200 207 219 223 200 194 224 255 271 273 267
34 33 33 32 30 30 29 30 33 37 41 51 68 49 32 70 108 77 101 82 351 26 27 18 58 40 339 350 164 283 274 240 200 260 264 205 212 202 180 164 150 173 245 242 250 241 185 198 223 176 162 194 160 172 153 136 141 162 170 178 177 158 163 30 56 309 271 285 337 324 322 330 294 268 249 201 190 214 238 240 217 202 196 220 243 247 261
34 33 33 33 32 32 31 30 31 36 39 43 58 61 38 53 60 30 77 76 357 355 40 22 43 102 269 351 15 338 339 338 324 327 324 315 335 352 145 139 152 234 241 258 284 313 121 143 133 122 107 92 114 124 136 144 142 156 156 157 195 142 133 173 173 205 272 296 331 334 331 315 264 236 178 175 202 213 220 244 242 216 194 215 246 262 282
36 34 33 33 32 31 33 32 31 37 38 35 44 54 42 39 56 65 84 90 358 5 40 15 353 275 298 45 79 232 242 260 258 159 289 287 352 23 45 91 283 266 281 310 321 346 37 43 60 70 54 44 52 66 94 151 345 353 121 134 136 125 121 181 169 171 270 311 4 355 299 245 255 271 226 216 224 200 208 251 263 244 217 229 258 271 271
36 36 34 34 33 31 32 31 30 35 37 32 37 48 42 33 42 73 97 107 6 349 49 340 300 8 336 293 233 247 241 244 265 168 185 244 269 292 299 149 187 234 293 314 333 47 333 324 346 342 340 6 23 39 36 5 360 2 16 82 124 136 140 158 153 192 274 343 32 294 271 277 292 310 308 212 139 142 213 275 273 259 227 213 243 258 259
35 36 35 34 34 32 31 31 30 30 33 31 34 43 43 37 40 61 99 95 358 250 176 348 324 286 232 226 227 292 294 294 315 310 207 227 245 239 244 188 183 227 284 295 16 40 344 338 8 347 328 358 358 348 17 18 27 35 8 8 110 134 142 177 277 214 199 304 258 265 307 315 308 309 171 173 142 151 178 274 276 273 243 194 225 255 260
33 34 34 33 33 32 31 31 31 29 30 29 29 36 37 34 37 57 120 109 86 299 204 293 286 220 193 206 185 352 334 331 323 298 290 18 241 248 261 230 216 265 276 286 52 47 27 349 5 345 333 345 325 309 335 35 11 51 28 22 100 120 148 171 205 247 106 85 299 312 338 311 277 261 257 265 197 155 143 139 285 284 267 210 216 246 259
31 31 32 31 31 31 30 30 30 28 29 28 26 30 30 27 28 33 69 108 95 6 256 196 166 132 126 181 182 160 307 308 304 315 331 335 309 291 289 260 235 263 321 50 66 75 57 6 177 181 283 247 230 289 302 302 317 349 39 61 74 60 43 105 142 288 12 111 246 262 250 259 262 262 264 265 207 133 100 24 292 276 270 230 204 230 257
26 27 28 28 28 29 28 28 27 26 26 26 26 28 28 23 21 17 16 78 81 318 241 171 129 102 101 333 280 211 200 193 174 333 320 293 296 320 312 299 257 235 186 43 31 60 72 77 158 208 262 235 161 295 295 291 295 297 348 47 59 48 23 70 180 248 224 156 222 249 239 253 265 269 264 215 176 103 66 336 282 257 254 221 186 232 267
25 25 25 26 25 25 24 24 25 25 24 24 25 26 25 22 19 16 16 72 60 319 244 166 123 85 155 168 214 204 180 150 124 302 301 293 294 271 238 224 85 229 210 79 50 63 85 222 212 202 257 258 129 269 268 181 250 252 179 117 81 71 31 156 183 224 202 183 231 271 266 254 258 267 243 163 148 67 46 271 266 267 270 232 204 258 282
26 25 25 25 23 21 21 20 21 22 22 21 22 23 21 18 16 16 18 65 73 326 250 179 157 241 160 129 84 138 152 102 108 125 330 321 289 208 202 172 92 182 102 93 137 135 128 260 240 148 237 281 264 189 223 210 217 190 140 158 240 196 191 167 161 194 194 188 212 279 287 264 222 181 166 157 147 241 238 242 275 317 303 287 277 281 289
27 27 26 26 24 22 20 18 18 20 20 21 22 24 21 15 13 15 15 60 115 312 275 193 186 220 163 98 35 59 93 15 81 136 193 271 242 85 12 328 317 23 41 68 222 208 178 251 264 157 204 255 233 171 246 263 246 196 179 212 225 185 179 231 212 183 154 80 79 296 281 264 163 127 108 198 191 227 257 296 313 305 303 306 300 291 289
32 31 30 28 27 25 22 20 20 19 20 21 21 24 25 17 12 11 6 18 121 26 316 245 110 358 56 359 356 13 279 275 231 163 180 241 236 129 202 254 224 193 208 155 165 250 215 215 253 236 217 244 246 211 233 297 303 272 205 196 229 188 182 228 241 190 138 147 211 215 230 215 170 163 237 229 220 255 317 330 308 301 304 306 299 295 292
35 35 33 31 29 27 24 24 22 20 22 22 19 23 26 19 12 11 2 342 218 240 282 299 357 25 18 349 336 323 296 267 252 207 166 236 263 174 170 199 201 201 199 139 132 284 271 197 219 241 248 245 235 231 201 213 293 292 259 149 233 215 197 210 238 216 179 208 234 240 253 233 200 212 260 276 281 293 302 292 289 295 297 295 297 299 300
37 36 35 33 31 29 27 25 24 22 22 21 20 26 29 22 16 13 8 357 344 294 282 290 45 54 38 26 18 2 342 296 268 250 196 206 294 253 191 204 222 216 181 166 192 209 204 211 200 195 246 227 198 245 265 236 247 264 244 236 248 233 196 178 235 245 263 266 255 251 271 277 269 242 250 271 284 290 292 288 282 281 285 289 291 291 296
39 37 36 35 32 30 28 25 25 23 21 22 23 26 30 29 23 19 16 21 29 1 321 3 55 61 18 10 15 13 6 344 298 267 229 215 240 287 266 218 191 181 249 222 192 139 153 224 181 151 244 228 174 221 266 257 236 223 236 270 278 267 171 173 241 272 306 282 272 260 258 274 289 300 280 273 277 279 281 285 282 285 291 293 291 291 294
39 37 35 32 30 29 27 24 23 21 20 20 18 18 29 33 29 28 30 29 30 64 34 334 5 43 19 358 356 353 349 343 326 296 261 236 228 251 278 254 191 220 253 222 160 128 192 240 198 208 241 231 197 209 237 249 235 194 225 256 266 275 142 177 233 246 239 268 282 294 289 274 275 280 278 283 290 289 289 287 280 286 293 290 288 289 290
36 34 31 28 25 25 24 23 22 19 17 14 11 16 35 39 32 32 34 25 18 101 76 298 294 355 357 351 347 345 346 345 336 319 297 269 249 252 269 281 278 268 257 184 152 163 197 222 214 221 229 230 232 204 212 249 256 214 249 252 205 107 174 200 244 275 274 278 289 308 310 295 292 314 302 281 279 292 303 307 299 295 298 298 297 293 285
30 27 24 20 18 18 20 21 20 17 14 10 6 12 41 45 35 34 36 32 28 50 19 317 278 318 329 332 342 347 349 347 341 330 315 296 273 263 265 267 276 289 300 277 269 167 135 224 244 218 214 243 271 197 217 262 289 257 263 265 100 104 253 244 347 296 283 287 297 315 316 300 304 334 330 312 301 304 311 314 316 315 312 312 313 311 306
22 20 17 13 12 13 15 18 18 18 14 6 1 10 54 52 36 33 35 37 45 118 216 252 280 304 317 324 336 348 352 350 347 341 322 306 291 273 260 247 249 283 124 222 262 164 171 232 241 209 215 262 267 246 266 317 310 259 269 268 127 193 230 182 198 252 259 277 288 294 295 289 298 317 319 314 316 322 319 315 315 313 311 312 314 314 314
18 17 14 13 12 11 13 16 16 17 14 4 356 8 73 62 32 24 22 23 28 58 196 290 304 302 316 319 320 338 355 351 346 343 327 311 291 271 259 241 227 204 138 145 204 199 218 228 213 214 231 195 194 268 292 301 253 264 280 105 150 200 219 215 237 250 259 272 278 282 294 299 302 306 306 304 309 321 320 312 309 307 309 312 311 305 304
18 14 10 12 13 10 10 14 13 12 13 7 358 5 50 47 18 13 10 8 7 14 114 64 322 291 310 308 301 324 345 345 343 339 322 303 285 274 266 248 232 204 112 358 239 207 246 274 273 278 267 203 184 257 263 239 260 261 265 80 112 233 238 240 244 248 258 269 278 295 319 306 292 292 295 297 308 322 321 306 305 308 310 313 314 307 300
15 11 5 5 6 3 2 4 4 4 8 12 17 31 58 338 346 352 355 355 355 9 106 107 300 300 321 304 276 319 336 337 340 338 320 300 290 288 271 250 243 213 195 248 247 204 239 265 265 287 289 221 205 234 210 229 268 259 274 12 341 298 274 268 266 258 258 269 288 313 323 307 296 305 310 305 313 323 320 301 305 311 312 312 310 302 297
9 6 2 358 357 358 356 355 356 359 9 30 56 75 80 313 324 333 341 347 350 16 104 49 339 343 326 298 286 326 332 329 336 346 334 314 330 333 298 251 249 228 209 207 279 264 230 209 234 279 282 208 213 240 220 237 256 267 296 324 315 299 297 300 294 270 256 259 289 322 322 314 305 308 307 302 309 314 306 297 307 314 315 316 316 312 311
5 3 357 348 347 350 349 350 359 9 26 52 62 45 11 347 329 328 336 344 349 33 99 67 13 305 288 292 305 340 340 331 344 3 350 326 10 1 323 292 310 267 223 188 210 264 234 188 242 289 287 227 205 274 258 248 252 273 302 306 299 304 314 303 282 270 264 254 218 216 265 278 283 294 300 301 303 303 299 299 306 312 317 322 323 325 328
358 355 348 340 338 341 342 356 19 32 45 57 41 1 349 341 333 336 346 358 10 20 48 79 94 281 302 320 321 332 353 357 348 352 340 326 14 8 307 315 1 338 226 179 201 284 301 272 250 272 281 269 115 172 262 262 262 279 293 293 296 312 327 315 291 280 277 274 243 221 243 266 284 299 300 295 294 298 303 308 311 315 321 323 317 319 324
353 351 343 334 331 332 339 27 45 40 48 46 359 342 338 334 336 353 18 37 38 14 2 51 65 300 322 344 317 292 344 11 301 253 247 288 343 37 120 359 350 296 226 167 100 277 276 250 223 244 278 268 175 219 249 268 282 283 284 291 303 319 335 326 302 291 293 303 301 283 280 292 305 305 298 291 293 300 306 311 314 316 317 314 311 314 316
348 348 343 333 330 335 15 67 40 28 25 357 334 331 331 334 352 36 69 77 69 73 82 29 22 296 306 322 294 289 342 349 307 284 283 295 321 29 83 64 314 259 177 70 335 264 259 222 216 290 294 232 217 229 231 246 270 275 280 291 301 306 301 284 280 292 313 324 319 306 304 306 301 294 292 293 297 300 303 309 315 319 317 314 315 317 315
350 350 342 326 324 1 49 47 19 1 346 332 327 330 337 353 23 54 73 73 58 52 64 57 293 245 224 271 279 311 346 333 318 336 333 274 260 318 64 95 252 268 12 10 261 247 256 85 202 257 259 244 244 248 236 241 262 274 283 291 294 296 291 277 265 287 320 325 319 309 306 307 305 306 311 313 311 311 313 315 317 317 312 308 309 310 310
349 346 342 345 9 58 44 351 339 335 332 329 329 341 3 23 38 44 45 44 26 26 56 73 265 273 304 269 271 293 310 313 351 358 318 264 282 332 26 172 245 278 335 284 248 201 124 339 228 239 261 282 279 251 244 253 268 273 274 279 282 292 299 289 256 338 352 345 332 318 319 327 327 323 321 317 312 308 303 299 297 297 295 294 297 301 302
351 353 5 26 50 137 287 315 322 324 325 332 5 54 14 20 39 20 341 7 12 13 44 46 250 223 189 255 281 286 241 355 356 346 300 278 294 297 296 289 294 24 329 286 282 112 231 281 280 265 281 292 272 253 261 284 291 285 289 295 292 292 297 292 275 270 290 309 304 293 288 297 305 307 308 307 305 302 297 294 297 298 297 296 296 297 298
12 17 20 18 340 313 315 321 324 326 329 353 25 46 38 22 39 61 345 24 15 299 231 190 243 227 187 210 265 281 242 289 313 293 251 256 260 224 72 286 278 47 278 275 279 88 182 266 283 286 271 259 251 266 300 317 296 288 300 302 298 301 309 319 314 300 278 269 281 286 279 272 271 276 285 290 296 300 300 299 300 299 299 298 298 297 297
12 11 355 319 313 319 325 333 349 27 50 38 32 43 37 359 349 17 66 50 346 273 251 100 357 315 295 170 211 254 261 263 202 140 186 280 286 105 216 266 274 340 257 254 249 75 73 260 263 262 253 245 250 269 303 312 293 290 297 303 317 325 322 317 318 313 298 280 284 293 291 284 278 277 279 281 284 287 289 290 293 295 295 295 295 297 299
345 331 319 311 309 314 325 347 27 37 43 55 48 22 353 344 2 5 3 16 232 261 278 114 224 271 270 231 210 231 247 286 41 89 84 288 278 177 214 285 341 285 250 248 320 67 82 254 264 256 242 247 262 276 303 311 298 292 297 307 326 330 318 306 305 306 303 295 290 293 295 293 290 290 291 289 288 287 288 288 288 291 296 300 302 305 311
328 314 311 310 307 314 334 346 11 48 52 51 49 31 352 340 2 20 293 291 290 293 286 280 295 306 298 271 240 239 240 243 207 104 210 269 276 84 352 310 264 235 246 260 45 47 232 241 253 250 242 264 282 280 277 285 289 292 293 298 307 312 307 298 291 293 297 297 292 291 293 293 293 296 299 297 294 292 293 295 297 301 309 315 317 317 318
329 316 323 330 329 354 2 346 72 95 70 320 115 118 107 307 300 172 239 288 301 300 289 296 4 346 317 291 276 269 257 238 112 106 255 273 311 84 249 248 237 244 283 300 244 250 246 241 246 253 258 280 292 285 274 282 297 301 293 294 300 302 298 293 288 290 299 305 305 305 306 305 306 309 312 310 307 302 301 307 313 318 320 319 316 312 312
344 344 16 15 351 333 341 8 23 56 195 209 174 158 174 199 205 205 211 216 232 312 331 351 8 309 291 283 278 263 251 279 26 239 231 265 272 231 225 235 250 308 309 276 251 259 265 261 265 279 276 273 290 301 296 287 286 285 286 298 306 305 300 300 303 307 312 317 319 320 319 317 316 315 314 312 312 311 311 315 318 318 315 313 309 307 308
13 46 61 48 333 322 94 131 350 328 198 191 190 184 181 185 203 221 222 196 234 309 314 311 302 294 288 281 273 252 186 121 277 254 170 153 256 247 219 187 268 280 275 259 249 252 260 266 273 276 267 267 285 299 298 288 282 279 280 293 303 306 308 311 313 315 318 320 321 320 317 315 314 312 310 311 313 314 314 314 313 309 307 306 305 304 306
15 44 66 80 293 332 55 187 220 222 212 208 207 203 199 199 228 246 235 199 208 263 285 286 271 264 257 251 263 269 241 125 248 257 181 146 253 271 359 56 245 238 232 243 248 248 256 267 273 273 278 291 303 306 305 304 300 299 300 302 305 311 315 317 317 318 319 319 317 315 313 311 310 310 310 310 309 308 309 309 308 306 303 301 299 301 303
18 34 72 124 232 246 232 243 266 269 245 230 226 234 245 272 296 275 259 221 193 244 337 1 341 301 286 252 229 252 269 248 240 254 255 117 237 272 294 238 244 240 221 230 243 249 254 266 283 293 297 300 298 294 293 295 297 302 309 313 315 317 318 316 314 313 312 311 310 307 306 306 306 306 305 304 302 303 304 305 305 304 302 300 298 299 300
69 66 143 181 239 241 227 212 352 318 290 274 267 273 279 262 256 267 268 242 199 232 283 312 278 273 278 279 249 252 256 226 220 257 308 216 222 233 226 237 250 256 239 227 238 259 270 278 293 299 296 294 294 294 296 300 305 310 313 313 313 313 311 308 305 304 304 304 302 300 299 300 301 301 300 298 297 299 302 303 303 302 301 298 296 295 295
113 197 195 196 255 274 277 301 329 295 299 304 298 284 280 271 265 266 256 198 159 337 339 331 262 251 278 313 303 274 251 232 221 260 263 244 228 219 235 244 248 250 248 248 258 275 282 290 297 297 297 302 306 307 308 311 312 310 308 306 305 304 301 299 298 298 298 298 297 296 297 297 297 296 295 295 295 297 299 300 300 299 298 297 297 295 293
249 238 230 225 228 241 255 232 225 257 278 281 256 242 242 241 247 249 242 204 18 355 338 295 257 301 304 284 267 259 252 230 207 248 250 238 191 180 236 252 256 260 268 275 279 284 291 296 298 299 302 306 307 307 307 307 305 303 302 300 299 299 297 296 296 296 296 297 297 296 295 295 295 294 294 294 295 296 296 296 296 297 298 298 298 298 296
239 239 262 259 241 238 252 252 241 249 260 250 227 219 220 222 235 249 261 278 305 301 261 221 203 246 260 247 241 253 267 260 249 252 252 244 213 215 242 256 264 273 280 287 294 298 299 300 299 299 301 303 302 301 302 301 300 299 298 298 297 297 296 295 295 295 295 296 296 295 294 294 294 295 295 294 294 293 291 292 295 297 297 297 298 298 298